AAL3158 KPHL-KTPA

Flight info

Callsign AAL3158
Flight time 2h 8m
Altitude 36000
Route STOEN Q75 TEUFL BAAMF DADES2
Aircraft A321/M-SDE3FGHIRWY/LB1

Departure

Time 2026-05-05 07:34
Airport Philadelphia International Airport (KPHL)

Arrival

Time 2026-05-05 09:42
Airport Tampa International Airport (KTPA)
Time Latitude Longitude Altitude Speed Heading
2026-05-05 07:08 39.87439 -75.24304 26 ft 0 kts 286°
2026-05-05 07:25 39.87436 -75.24294 30 ft 4 kts 286°
2026-05-05 07:25 39.87430 -75.24266 29 ft 4 kts 277°
2026-05-05 07:25 39.87433 -75.24242 30 ft 4 kts 200°
2026-05-05 07:25 39.87456 -75.24243 30 ft 4 kts 165°
2026-05-05 07:26 39.87467 -75.24247 30 ft 0 kts 165°
2026-05-05 07:28 39.87465 -75.24246 30 ft 1 kts 165°
2026-05-05 07:28 39.87439 -75.24240 29 ft 8 kts 172°
2026-05-05 07:28 39.87371 -75.24230 25 ft 11 kts 173°
2026-05-05 07:29 39.87299 -75.24196 27 ft 12 kts 153°
2026-05-05 07:29 39.87265 -75.24146 27 ft 11 kts 98°
2026-05-05 07:29 39.87286 -75.24042 27 ft 12 kts 74°
2026-05-05 07:29 39.87309 -75.23928 25 ft 15 kts 76°
2026-05-05 07:30 39.87341 -75.23768 25 ft 19 kts 75°
2026-05-05 07:30 39.87423 -75.23358 28 ft 21 kts 75°
2026-05-05 07:30 39.87448 -75.23234 27 ft 21 kts 75°
2026-05-05 07:31 39.87485 -75.23047 25 ft 22 kts 76°
2026-05-05 07:31 39.87523 -75.22855 28 ft 22 kts 75°
2026-05-05 07:31 39.87562 -75.22661 30 ft 23 kts 76°
2026-05-05 07:31 39.87593 -75.22505 30 ft 14 kts 75°
2026-05-05 07:32 39.87585 -75.22383 29 ft 13 kts 112°
2026-05-05 07:32 39.87541 -75.22336 27 ft 8 kts 175°
2026-05-05 07:32 39.87505 -75.22377 26 ft 7 kts 256°
2026-05-05 07:32 39.87502 -75.22393 26 ft 1 kts 256°
2026-05-05 07:33 39.87500 -75.22404 25 ft 2 kts 256°
2026-05-05 07:33 39.87486 -75.22476 27 ft 30 kts 256°
2026-05-05 07:33 39.87369 -75.23062 26 ft 101 kts 255°
2026-05-05 07:33 39.87143 -75.24187 27 ft 156 kts 255°
2026-05-05 07:34 39.86828 -75.25625 525 ft 160 kts 248°
2026-05-05 07:34 39.86392 -75.26918 1344 ft 153 kts 244°
2026-05-05 07:34 39.85919 -75.28152 1979 ft 157 kts 245°
2026-05-05 07:34 39.85378 -75.29492 2190 ft 176 kts 244°
2026-05-05 07:35 39.84778 -75.30967 2412 ft 194 kts 245°
2026-05-05 07:35 39.84142 -75.32641 2555 ft 218 kts 247°
2026-05-05 07:35 39.83504 -75.34551 2915 ft 235 kts 249°
2026-05-05 07:35 39.82871 -75.36497 3765 ft 233 kts 249°
2026-05-05 07:36 39.82301 -75.38509 4366 ft 241 kts 257°
2026-05-05 07:36 39.82200 -75.40692 5036 ft 245 kts 272°
2026-05-05 07:36 39.82286 -75.42920 5753 ft 248 kts 272°
2026-05-05 07:36 39.82377 -75.45142 6466 ft 250 kts 272°
2026-05-05 07:37 39.82474 -75.47412 7164 ft 252 kts 272°
2026-05-05 07:37 39.82573 -75.49711 7854 ft 256 kts 272°
2026-05-05 07:37 39.82673 -75.52034 8544 ft 259 kts 272°
2026-05-05 07:37 39.82770 -75.54384 9243 ft 262 kts 272°
2026-05-05 07:38 39.82868 -75.56765 9932 ft 265 kts 272°
2026-05-05 07:38 39.82972 -75.59210 10345 ft 279 kts 272°
2026-05-05 07:38 39.83083 -75.61831 10473 ft 301 kts 272°
2026-05-05 07:38 39.83201 -75.64626 10760 ft 316 kts 272°
2026-05-05 07:39 39.83317 -75.67461 11322 ft 320 kts 272°
2026-05-05 07:39 39.83435 -75.70366 11948 ft 323 kts 272°
2026-05-05 07:39 39.83554 -75.73305 12573 ft 326 kts 272°
2026-05-05 07:39 39.83624 -75.76272 13203 ft 329 kts 266°
2026-05-05 07:40 39.83242 -75.79213 13815 ft 332 kts 253°
2026-05-05 07:40 39.82325 -75.81982 14392 ft 336 kts 241°
2026-05-05 07:40 39.80943 -75.84455 14949 ft 340 kts 233°
2026-05-05 07:40 39.79434 -75.86857 15498 ft 344 kts 232°
2026-05-05 07:41 39.77910 -75.89276 16069 ft 347 kts 232°
2026-05-05 07:41 39.76395 -75.91678 16613 ft 350 kts 232°
2026-05-05 07:41 39.74845 -75.94142 17156 ft 353 kts 232°
2026-05-05 07:41 39.73282 -75.96635 17696 ft 357 kts 232°
2026-05-05 07:42 39.71709 -75.99143 18230 ft 360 kts 232°
2026-05-05 07:42 39.70113 -76.01683 18704 ft 363 kts 232°
2026-05-05 07:42 39.68506 -76.04229 19179 ft 366 kts 232°
2026-05-05 07:42 39.66884 -76.06797 19663 ft 369 kts 231°
2026-05-05 07:43 39.65273 -76.09343 20142 ft 371 kts 231°
2026-05-05 07:43 39.63631 -76.11935 20632 ft 374 kts 232°
2026-05-05 07:43 39.61972 -76.14552 21134 ft 376 kts 232°
2026-05-05 07:43 39.60308 -76.17175 21648 ft 378 kts 232°
2026-05-05 07:44 39.58628 -76.19803 22118 ft 380 kts 231°
2026-05-05 07:44 39.56919 -76.22444 22570 ft 383 kts 231°
2026-05-05 07:44 39.55194 -76.25093 23017 ft 386 kts 231°
2026-05-05 07:44 39.53453 -76.27760 23449 ft 389 kts 231°
2026-05-05 07:45 39.51700 -76.30442 23819 ft 391 kts 231°
2026-05-05 07:45 39.49937 -76.33141 24173 ft 393 kts 231°
2026-05-05 07:45 39.48159 -76.35860 24530 ft 396 kts 231°
2026-05-05 07:45 39.46370 -76.38584 24873 ft 398 kts 230°
2026-05-05 07:46 39.44500 -76.41253 25221 ft 400 kts 229°
2026-05-05 07:46 39.42554 -76.43846 25608 ft 401 kts 227°
2026-05-05 07:46 39.40594 -76.46359 25982 ft 403 kts 226°
2026-05-05 07:46 39.38583 -76.48905 26333 ft 405 kts 226°
2026-05-05 07:47 39.36560 -76.51470 26705 ft 407 kts 227°
2026-05-05 07:47 39.34547 -76.54049 27071 ft 408 kts 227°
2026-05-05 07:47 39.32543 -76.56646 27413 ft 410 kts 227°
2026-05-05 07:47 39.30530 -76.59273 27755 ft 411 kts 227°
2026-05-05 07:48 39.28515 -76.61914 28058 ft 413 kts 227°
2026-05-05 07:48 39.26490 -76.64566 28388 ft 415 kts 227°
2026-05-05 07:48 39.24481 -76.67189 28681 ft 417 kts 228°
2026-05-05 07:48 39.22431 -76.69853 28968 ft 419 kts 227°
2026-05-05 07:49 39.20371 -76.72523 29276 ft 421 kts 227°
2026-05-05 07:49 39.18299 -76.75207 29579 ft 423 kts 227°
2026-05-05 07:49 39.16215 -76.77907 29918 ft 425 kts 227°
2026-05-05 07:49 39.14118 -76.80622 30192 ft 427 kts 227°
2026-05-05 07:50 39.12017 -76.83342 30440 ft 429 kts 227°
2026-05-05 07:50 39.09931 -76.86041 30711 ft 430 kts 227°
2026-05-05 07:50 39.07816 -76.88769 31069 ft 429 kts 227°
2026-05-05 07:50 39.05708 -76.91483 31397 ft 429 kts 228°
2026-05-05 07:51 39.03599 -76.94200 31716 ft 429 kts 228°
2026-05-05 07:51 39.01489 -76.96918 32029 ft 429 kts 228°
2026-05-05 07:51 38.99375 -76.99641 32344 ft 429 kts 227°
2026-05-05 07:51 38.97264 -77.02360 32649 ft 429 kts 227°
2026-05-05 07:52 38.95156 -77.05075 32948 ft 430 kts 227°
2026-05-05 07:52 38.93044 -77.07795 33244 ft 430 kts 227°
2026-05-05 07:52 38.90928 -77.10514 33550 ft 430 kts 227°
2026-05-05 07:52 38.88837 -77.13196 33847 ft 430 kts 227°
2026-05-05 07:53 38.86717 -77.15911 34100 ft 430 kts 227°
2026-05-05 07:53 38.84601 -77.18620 34404 ft 428 kts 227°
2026-05-05 07:53 38.82498 -77.21312 34681 ft 427 kts 227°
2026-05-05 07:53 38.80393 -77.24001 34970 ft 426 kts 227°
2026-05-05 07:54 38.78292 -77.26683 35241 ft 425 kts 227°
2026-05-05 07:54 38.76199 -77.29356 35505 ft 425 kts 227°
2026-05-05 07:54 38.74108 -77.32025 35775 ft 424 kts 227°
2026-05-05 07:54 38.72002 -77.34678 35904 ft 424 kts 226°
2026-05-05 07:55 38.67669 -77.39768 35953 ft 422 kts 224°
2026-05-05 07:55 38.63273 -77.44731 35964 ft 421 kts 224°
2026-05-05 07:56 38.58894 -77.49699 35963 ft 420 kts 225°
2026-05-05 07:56 38.54576 -77.54666 35962 ft 420 kts 225°
2026-05-05 07:57 38.50241 -77.59671 35969 ft 420 kts 225°
2026-05-05 07:57 38.45889 -77.64677 35970 ft 420 kts 225°
2026-05-05 07:58 38.41533 -77.69675 35978 ft 420 kts 225°
2026-05-05 07:58 38.37203 -77.74624 35982 ft 420 kts 225°
2026-05-05 07:59 38.32849 -77.79586 35979 ft 420 kts 225°
2026-05-05 07:59 38.28500 -77.84547 36000 ft 419 kts 225°
2026-05-05 08:00 38.24148 -77.89500 35982 ft 419 kts 225°
2026-05-05 08:00 38.19802 -77.94441 35999 ft 419 kts 225°
2026-05-05 08:01 38.15477 -77.99353 35996 ft 419 kts 225°
2026-05-05 08:01 38.11127 -78.04283 35998 ft 418 kts 225°
2026-05-05 08:02 38.06780 -78.09194 35998 ft 418 kts 225°
2026-05-05 08:02 38.02423 -78.14101 35990 ft 418 kts 225°
2026-05-05 08:03 37.97935 -78.18818 36005 ft 421 kts 221°
2026-05-05 08:03 37.93220 -78.23232 35990 ft 422 kts 220°
2026-05-05 08:04 37.88477 -78.27598 35986 ft 421 kts 220°
2026-05-05 08:04 37.83775 -78.32036 35984 ft 421 kts 221°
2026-05-05 08:05 37.79131 -78.36481 35991 ft 421 kts 221°
2026-05-05 08:05 37.74456 -78.40944 35988 ft 421 kts 221°
2026-05-05 08:06 37.69769 -78.45394 35995 ft 421 kts 221°
2026-05-05 08:06 37.65087 -78.49833 36001 ft 421 kts 221°
2026-05-05 08:07 37.60390 -78.54270 36002 ft 422 kts 221°
2026-05-05 08:07 37.55687 -78.58706 36006 ft 422 kts 221°
2026-05-05 08:08 37.50981 -78.63137 36013 ft 422 kts 221°
2026-05-05 08:08 37.46271 -78.67560 36015 ft 423 kts 221°
2026-05-05 08:09 37.41589 -78.71956 36017 ft 422 kts 220°
2026-05-05 08:09 37.36875 -78.76378 36008 ft 422 kts 221°
2026-05-05 08:10 37.32159 -78.80790 36016 ft 422 kts 221°
2026-05-05 08:10 37.27443 -78.85189 36025 ft 422 kts 220°
2026-05-05 08:11 37.22729 -78.89588 36021 ft 422 kts 221°
2026-05-05 08:11 37.18014 -78.93990 36006 ft 422 kts 221°
2026-05-05 08:12 37.13291 -78.98384 36012 ft 422 kts 221°
2026-05-05 08:12 37.08569 -79.02768 36017 ft 422 kts 221°
2026-05-05 08:13 37.03879 -79.07120 36017 ft 422 kts 220°
2026-05-05 08:13 36.99153 -79.11497 36018 ft 422 kts 220°
2026-05-05 08:14 36.94413 -79.15869 36000 ft 423 kts 220°
2026-05-05 08:14 36.89671 -79.20239 36011 ft 423 kts 220°
2026-05-05 08:15 36.84931 -79.24608 36023 ft 424 kts 220°
2026-05-05 08:15 36.80186 -79.28972 36033 ft 424 kts 220°
2026-05-05 08:16 36.75467 -79.33313 36024 ft 424 kts 220°
2026-05-05 08:16 36.70702 -79.37681 36037 ft 424 kts 220°
2026-05-05 08:17 36.65940 -79.42038 36052 ft 425 kts 220°
2026-05-05 08:17 36.61978 -79.45658 36053 ft 425 kts 220°
2026-05-05 08:18 36.57216 -79.50010 36050 ft 425 kts 220°
2026-05-05 08:18 36.52451 -79.54358 36006 ft 425 kts 220°
2026-05-05 08:19 36.47676 -79.58699 36025 ft 425 kts 220°
2026-05-05 08:19 36.42896 -79.63033 36028 ft 425 kts 220°
2026-05-05 08:20 36.38114 -79.67372 36032 ft 426 kts 220°
2026-05-05 08:20 36.33332 -79.71708 36062 ft 426 kts 220°
2026-05-05 08:21 36.28553 -79.76034 36040 ft 425 kts 220°
2026-05-05 08:21 36.23770 -79.80359 36041 ft 425 kts 220°
2026-05-05 08:22 36.18987 -79.84673 36048 ft 426 kts 221°
2026-05-05 08:22 36.14193 -79.88987 36055 ft 426 kts 221°
2026-05-05 08:23 36.09393 -79.93299 36057 ft 426 kts 220°
2026-05-05 08:23 36.04498 -79.97472 36042 ft 431 kts 213°
2026-05-05 08:24 35.98977 -80.00414 36045 ft 437 kts 207°
2026-05-05 08:24 35.93324 -80.03203 36048 ft 437 kts 207°
2026-05-05 08:25 35.87674 -80.05988 36054 ft 437 kts 207°
2026-05-05 08:25 35.82013 -80.08769 36055 ft 438 kts 207°
2026-05-05 08:26 35.76351 -80.11555 36061 ft 438 kts 207°
2026-05-05 08:26 35.70688 -80.14343 36065 ft 438 kts 207°
2026-05-05 08:27 35.65013 -80.17125 36068 ft 439 kts 207°
2026-05-05 08:27 35.59371 -80.19883 36093 ft 439 kts 207°
2026-05-05 08:28 35.53692 -80.22664 36104 ft 439 kts 207°
2026-05-05 08:28 35.48014 -80.25441 36111 ft 440 kts 207°
2026-05-05 08:29 35.42323 -80.28224 36112 ft 440 kts 207°
2026-05-05 08:30 35.33767 -80.32381 36082 ft 441 kts 207°
2026-05-05 08:30 35.28062 -80.35156 36081 ft 441 kts 207°
2026-05-05 08:31 35.22393 -80.37915 36084 ft 442 kts 207°
2026-05-05 08:31 35.16675 -80.40682 36085 ft 442 kts 207°
2026-05-05 08:32 35.10947 -80.43445 36070 ft 442 kts 207°
2026-05-05 08:32 35.05219 -80.46211 36070 ft 443 kts 207°
2026-05-05 08:33 34.99484 -80.48977 36076 ft 443 kts 207°
2026-05-05 08:33 34.93742 -80.51739 36083 ft 443 kts 207°
2026-05-05 08:34 34.87995 -80.54506 36083 ft 444 kts 207°
2026-05-05 08:34 34.82249 -80.57268 36070 ft 444 kts 207°
2026-05-05 08:35 34.76498 -80.60028 36078 ft 445 kts 207°
2026-05-05 08:35 34.70736 -80.62785 36076 ft 445 kts 207°
2026-05-05 08:36 34.65138 -80.65774 36078 ft 438 kts 217°
2026-05-05 08:36 34.60429 -80.70267 36069 ft 429 kts 227°
2026-05-05 08:37 34.55978 -80.75116 36074 ft 430 kts 227°
2026-05-05 08:37 34.51506 -80.79948 36082 ft 431 kts 227°
2026-05-05 08:38 34.47029 -80.84781 36087 ft 431 kts 227°
2026-05-05 08:38 34.42541 -80.89614 36097 ft 431 kts 227°
2026-05-05 08:39 34.38063 -80.94441 36076 ft 431 kts 228°
2026-05-05 08:39 34.33573 -80.99262 36086 ft 434 kts 225°
2026-05-05 08:40 34.28319 -81.02962 36094 ft 450 kts 206°
2026-05-05 08:40 34.22326 -81.05286 36099 ft 453 kts 204°
2026-05-05 08:41 34.16314 -81.07593 36103 ft 453 kts 204°
2026-05-05 08:41 34.10299 -81.09909 36067 ft 454 kts 205°
2026-05-05 08:42 34.04275 -81.12219 36072 ft 455 kts 205°
2026-05-05 08:42 33.98234 -81.14529 36082 ft 455 kts 205°
2026-05-05 08:43 33.92181 -81.16841 36090 ft 456 kts 205°
2026-05-05 08:43 33.86134 -81.19155 36071 ft 456 kts 205°
2026-05-05 08:44 33.80074 -81.21474 36086 ft 457 kts 205°
2026-05-05 08:44 33.74023 -81.23768 36085 ft 458 kts 205°
2026-05-05 08:45 33.67953 -81.26071 36096 ft 458 kts 205°
2026-05-05 08:45 33.61869 -81.28386 36052 ft 458 kts 206°
2026-05-05 08:46 33.55787 -81.30699 36064 ft 459 kts 206°
2026-05-05 08:46 33.49685 -81.33003 36072 ft 460 kts 206°
2026-05-05 08:47 33.43577 -81.35308 36096 ft 460 kts 206°
2026-05-05 08:47 33.37470 -81.37613 36070 ft 461 kts 206°
2026-05-05 08:48 33.31358 -81.39913 36087 ft 460 kts 206°
2026-05-05 08:48 33.25264 -81.42246 36098 ft 459 kts 208°
2026-05-05 08:49 33.19267 -81.44820 36109 ft 457 kts 209°
2026-05-05 08:49 33.13310 -81.47472 36109 ft 457 kts 209°
2026-05-05 08:50 33.07370 -81.50059 36106 ft 458 kts 209°
2026-05-05 08:50 33.01371 -81.52608 36101 ft 458 kts 208°
2026-05-05 08:51 32.95355 -81.55145 36103 ft 458 kts 208°
2026-05-05 08:51 32.89354 -81.57707 36115 ft 458 kts 209°
2026-05-05 08:52 32.83406 -81.60382 36100 ft 456 kts 210°
2026-05-05 08:52 32.77487 -81.63108 36114 ft 456 kts 210°
2026-05-05 08:53 32.71563 -81.65813 36099 ft 456 kts 210°
2026-05-05 08:53 32.65625 -81.68489 36104 ft 457 kts 210°
2026-05-05 08:54 32.59681 -81.71160 36079 ft 457 kts 210°
2026-05-05 08:54 32.53725 -81.73836 36064 ft 458 kts 210°
2026-05-05 08:55 32.47863 -81.76466 36069 ft 458 kts 210°
2026-05-05 08:55 32.41901 -81.79142 36084 ft 459 kts 210°
2026-05-05 08:56 32.35924 -81.81823 36089 ft 459 kts 210°
2026-05-05 08:56 32.29951 -81.84502 36067 ft 460 kts 211°
2026-05-05 08:57 32.23963 -81.87180 36078 ft 461 kts 211°
2026-05-05 08:57 32.17944 -81.89851 36088 ft 461 kts 211°
2026-05-05 08:58 32.11946 -81.92450 36098 ft 464 kts 209°
2026-05-05 08:58 32.05770 -81.94791 36066 ft 467 kts 207°
2026-05-05 08:59 31.99528 -81.97009 36072 ft 468 kts 207°
2026-05-05 08:59 31.93298 -81.99278 36081 ft 468 kts 208°
2026-05-05 09:00 31.87091 -82.01595 36088 ft 471 kts 206°
2026-05-05 09:00 31.80633 -82.03340 36044 ft 477 kts 203°
2026-05-05 09:01 31.74122 -82.04988 36056 ft 479 kts 203°
2026-05-05 09:01 31.67588 -82.06618 36066 ft 481 kts 203°
2026-05-05 09:02 31.61076 -82.08253 36094 ft 482 kts 203°
2026-05-05 09:02 31.54479 -82.09920 36070 ft 482 kts 204°
2026-05-05 09:03 31.47909 -82.11574 36073 ft 483 kts 204°
2026-05-05 09:03 31.41370 -82.13215 36083 ft 484 kts 204°
2026-05-05 09:04 31.34777 -82.14871 36078 ft 485 kts 204°
2026-05-05 09:04 31.28180 -82.16520 36046 ft 485 kts 204°
2026-05-05 09:05 31.21574 -82.18168 36059 ft 485 kts 204°
2026-05-05 09:05 31.16078 -82.19540 36088 ft 486 kts 204°
2026-05-05 09:06 31.09462 -82.21193 36108 ft 486 kts 204°
2026-05-05 09:06 31.02847 -82.22852 36140 ft 486 kts 204°
2026-05-05 09:07 30.96225 -82.24501 36132 ft 486 kts 204°
2026-05-05 09:07 30.89603 -82.26138 36173 ft 486 kts 204°
2026-05-05 09:08 30.83016 -82.27768 36186 ft 486 kts 204°
2026-05-05 09:08 30.76393 -82.29415 36189 ft 486 kts 204°
2026-05-05 09:09 30.69782 -82.31049 36162 ft 486 kts 204°
2026-05-05 09:09 30.63028 -82.32244 36183 ft 495 kts 197°
2026-05-05 09:10 30.56167 -82.33101 36189 ft 496 kts 197°
2026-05-05 09:10 30.49347 -82.33945 36211 ft 496 kts 197°
2026-05-05 09:11 30.42483 -82.34787 36212 ft 495 kts 197°
2026-05-05 09:11 30.35622 -82.35640 36206 ft 495 kts 197°
2026-05-05 09:12 30.28760 -82.36490 36187 ft 495 kts 197°
2026-05-05 09:12 30.21907 -82.37348 36186 ft 495 kts 197°
2026-05-05 09:13 30.15023 -82.37849 36126 ft 508 kts 186°
2026-05-05 09:13 30.07960 -82.37446 36154 ft 508 kts 186°
2026-05-05 09:13 30.04424 -82.37239 35937 ft 508 kts 186°
2026-05-05 09:14 30.00896 -82.37036 35688 ft 506 kts 186°
2026-05-05 09:14 29.97382 -82.36838 35442 ft 505 kts 186°
2026-05-05 09:14 29.93869 -82.36644 35186 ft 504 kts 186°
2026-05-05 09:14 29.90367 -82.36448 34948 ft 504 kts 186°
2026-05-05 09:15 29.86866 -82.36251 34668 ft 502 kts 186°
2026-05-05 09:15 29.83385 -82.36056 34422 ft 500 kts 186°
2026-05-05 09:15 29.79913 -82.35866 34188 ft 498 kts 186°
2026-05-05 09:15 29.76447 -82.35676 33620 ft 498 kts 185°
2026-05-05 09:16 29.72986 -82.35485 33082 ft 497 kts 185°
2026-05-05 09:16 29.69536 -82.35296 32530 ft 495 kts 186°
2026-05-05 09:16 29.66089 -82.35108 31979 ft 494 kts 185°
2026-05-05 09:16 29.62707 -82.34919 31441 ft 493 kts 185°
2026-05-05 09:17 29.59299 -82.34728 30954 ft 489 kts 185°
2026-05-05 09:17 29.55914 -82.34535 30521 ft 485 kts 185°
2026-05-05 09:17 29.52557 -82.34346 30042 ft 482 kts 185°
2026-05-05 09:17 29.49217 -82.34162 29554 ft 477 kts 185°
2026-05-05 09:18 29.45920 -82.33982 29107 ft 472 kts 185°
2026-05-05 09:18 29.42654 -82.33801 28676 ft 467 kts 185°
2026-05-05 09:18 29.39422 -82.33607 28250 ft 462 kts 184°
2026-05-05 09:18 29.36228 -82.33321 27828 ft 459 kts 182°
2026-05-05 09:19 29.33061 -82.32947 27416 ft 456 kts 181°
2026-05-05 09:19 29.29921 -82.32527 26985 ft 451 kts 180°
2026-05-05 09:19 29.26816 -82.32101 26594 ft 447 kts 180°
2026-05-05 09:19 29.23738 -82.31694 26176 ft 443 kts 181°
2026-05-05 09:20 29.20686 -82.31309 25767 ft 440 kts 181°
2026-05-05 09:20 29.17649 -82.30943 25364 ft 436 kts 181°
2026-05-05 09:20 29.14638 -82.30592 24928 ft 434 kts 181°
2026-05-05 09:20 29.11681 -82.30250 24600 ft 429 kts 181°
2026-05-05 09:21 29.08717 -82.29907 24179 ft 427 kts 181°
2026-05-05 09:21 29.05786 -82.29563 23902 ft 421 kts 181°
2026-05-05 09:21 29.02885 -82.29217 23492 ft 417 kts 181°
2026-05-05 09:21 29.00021 -82.28871 22734 ft 409 kts 181°
2026-05-05 09:22 28.97242 -82.28532 22334 ft 393 kts 181°
2026-05-05 09:22 28.94575 -82.28205 21932 ft 378 kts 181°
2026-05-05 09:22 28.92007 -82.27896 21543 ft 364 kts 181°
2026-05-05 09:22 28.89534 -82.27601 21168 ft 351 kts 181°
2026-05-05 09:23 28.87140 -82.27317 20768 ft 340 kts 181°
2026-05-05 09:23 28.84800 -82.27046 20408 ft 339 kts 181°
2026-05-05 09:23 28.82460 -82.26779 20079 ft 337 kts 181°
2026-05-05 09:23 28.80134 -82.26512 19725 ft 335 kts 181°
2026-05-05 09:24 28.77823 -82.26245 19370 ft 333 kts 180°
2026-05-05 09:24 28.75527 -82.25977 19016 ft 331 kts 180°
2026-05-05 09:24 28.73238 -82.25779 18649 ft 326 kts 186°
2026-05-05 09:24 28.70975 -82.25748 18302 ft 324 kts 185°
2026-05-05 09:25 28.68728 -82.25714 17925 ft 322 kts 185°
2026-05-05 09:25 28.66497 -82.25677 17549 ft 319 kts 185°
2026-05-05 09:25 28.64307 -82.25641 17203 ft 317 kts 185°
2026-05-05 09:25 28.62114 -82.25605 16856 ft 314 kts 185°
2026-05-05 09:26 28.59936 -82.25565 16513 ft 311 kts 184°
2026-05-05 09:26 28.57777 -82.25524 16164 ft 309 kts 184°
2026-05-05 09:26 28.55634 -82.25480 15834 ft 307 kts 184°
2026-05-05 09:26 28.53504 -82.25435 15501 ft 305 kts 184°
2026-05-05 09:27 28.51385 -82.25395 15168 ft 303 kts 184°
2026-05-05 09:27 28.49278 -82.25365 14830 ft 302 kts 184°
2026-05-05 09:27 28.47181 -82.25341 14495 ft 300 kts 184°
2026-05-05 09:27 28.45093 -82.25319 14156 ft 299 kts 184°
2026-05-05 09:28 28.43014 -82.25296 13820 ft 298 kts 184°
2026-05-05 09:28 28.40946 -82.25269 13469 ft 296 kts 184°
2026-05-05 09:28 28.38894 -82.25277 13137 ft 293 kts 189°
2026-05-05 09:28 28.36868 -82.25709 12808 ft 299 kts 201°
2026-05-05 09:29 28.34974 -82.26650 12467 ft 296 kts 214°
2026-05-05 09:29 28.33340 -82.28002 12141 ft 293 kts 223°
2026-05-05 09:29 28.31768 -82.29514 11800 ft 292 kts 223°
2026-05-05 09:29 28.30234 -82.30980 11476 ft 291 kts 223°
2026-05-05 09:30 28.28683 -82.32459 11119 ft 290 kts 223°
2026-05-05 09:30 28.27141 -82.33925 10763 ft 289 kts 222°
2026-05-05 09:30 28.25598 -82.35387 10423 ft 288 kts 222°
2026-05-05 09:30 28.24061 -82.36842 10074 ft 287 kts 222°
2026-05-05 09:31 28.22534 -82.38292 9709 ft 286 kts 222°
2026-05-05 09:31 28.20978 -82.39687 9350 ft 285 kts 214°
2026-05-05 09:31 28.19191 -82.40659 8985 ft 286 kts 200°
2026-05-05 09:31 28.17262 -82.41078 8648 ft 287 kts 185°
2026-05-05 09:32 28.15269 -82.41126 8299 ft 286 kts 183°
2026-05-05 09:32 28.13289 -82.41168 7964 ft 283 kts 183°
2026-05-05 09:32 28.11323 -82.41216 7606 ft 283 kts 183°
2026-05-05 09:32 28.09365 -82.41267 7256 ft 281 kts 183°
2026-05-05 09:33 28.07410 -82.41314 6910 ft 280 kts 182°
2026-05-05 09:33 28.05470 -82.41359 6568 ft 279 kts 182°
2026-05-05 09:33 28.03559 -82.41403 6403 ft 269 kts 182°
2026-05-05 09:33 28.01719 -82.41447 6283 ft 258 kts 182°
2026-05-05 09:34 28.00005 -82.41489 6133 ft 235 kts 182°
2026-05-05 09:34 27.98408 -82.41528 5757 ft 230 kts 182°
2026-05-05 09:34 27.96803 -82.41566 5389 ft 228 kts 181°
2026-05-05 09:34 27.95237 -82.41603 5236 ft 223 kts 181°
2026-05-05 09:35 27.93686 -82.41638 5130 ft 223 kts 181°
2026-05-05 09:35 27.90608 -82.41705 4997 ft 222 kts 181°
2026-05-05 09:35 27.89062 -82.41743 4726 ft 219 kts 181°
2026-05-05 09:36 27.87555 -82.41782 4411 ft 219 kts 181°
2026-05-05 09:36 27.86042 -82.41822 4185 ft 214 kts 180°
2026-05-05 09:36 27.84601 -82.41859 3950 ft 200 kts 180°
2026-05-05 09:36 27.83253 -82.41920 3698 ft 190 kts 186°
2026-05-05 09:37 27.82112 -82.42602 3445 ft 190 kts 226°
2026-05-05 09:37 27.81526 -82.43942 3214 ft 194 kts 251°
2026-05-05 09:37 27.81412 -82.45456 2962 ft 192 kts 270°
2026-05-05 09:37 27.81513 -82.46946 2732 ft 189 kts 273°
2026-05-05 09:38 27.81637 -82.48426 2609 ft 190 kts 274°
2026-05-05 09:38 27.81758 -82.49910 2598 ft 190 kts 273°
2026-05-05 09:38 27.81888 -82.51407 2588 ft 191 kts 274°
2026-05-05 09:38 27.82178 -82.52872 2544 ft 193 kts 295°
2026-05-05 09:39 27.83014 -82.54035 2473 ft 192 kts 325°
2026-05-05 09:39 27.84218 -82.54604 2316 ft 187 kts 356°
2026-05-05 09:39 27.85502 -82.54608 2111 ft 182 kts
2026-05-05 09:39 27.86743 -82.54564 1866 ft 175 kts
2026-05-05 09:40 27.87954 -82.54522 1653 ft 172 kts
2026-05-05 09:40 27.89117 -82.54485 1403 ft 161 kts
2026-05-05 09:40 27.90204 -82.54454 1194 ft 153 kts
2026-05-05 09:40 27.91261 -82.54419 1053 ft 151 kts
2026-05-05 09:41 27.92303 -82.54386 887 ft 150 kts
2026-05-05 09:41 27.93332 -82.54344 715 ft 148 kts
2026-05-05 09:41 27.94352 -82.54304 470 ft 145 kts
2026-05-05 09:41 27.95357 -82.54272 275 ft 143 kts
2026-05-05 09:42 27.96345 -82.54233 104 ft 141 kts
2026-05-05 09:42 27.97258 -82.54203 51 ft 114 kts
2026-05-05 09:42 27.97881 -82.54183 48 ft 65 kts
2026-05-05 09:42 27.98183 -82.54161 49 ft 29 kts 15°
2026-05-05 09:43 27.98319 -82.54071 49 ft 17 kts 53°
2026-05-05 09:43 27.98309 -82.53967 47 ft 11 kts 171°
2026-05-05 09:43 27.98227 -82.53965 47 ft 13 kts 179°
2026-05-05 09:43 27.98135 -82.53969 47 ft 14 kts 182°
2026-05-05 09:44 27.98033 -82.53972 47 ft 16 kts 181°
2026-05-05 09:44 27.97918 -82.53976 46 ft 18 kts 181°
2026-05-05 09:44 27.97790 -82.53977 45 ft 19 kts 180°
2026-05-05 09:44 27.97675 -82.53981 46 ft 15 kts 179°
2026-05-05 09:45 27.97609 -82.53915 45 ft 11 kts 122°
2026-05-05 09:45 27.97610 -82.53859 43 ft 6 kts 48°
2026-05-05 09:45 27.97641 -82.53837 43 ft 2 kts 33°
2026-05-05 09:45 27.97648 -82.53831 43 ft 0 kts 34°